GLOBALSTAR M064 [-]

Last updated on July 6, 2021, 3:36 p.m. UTC

1 26084U 00008D   21186.89045626 -.00000079  00000-0  54864-4 0  9994
2 26084  52.0047  65.7243 0001189 140.8652 219.2266 11.88491247995716
UTC
Height (km)
Latitude
Longitude
Inclination
Orbital Period
UTC large
Height (km)
Speed (km/s)
/
Latitude / Longitude
Inclination (degrees)
Orbital Period (minutes)
Azimuth
Elevation
Range (km)
Doppler Factor
iOS Compass Heading
iOS Angle